[[{"header":{"parameterUnit":"m.s-1","parameterCategory":1,"la1":30.2991,"la2":30.254,"lo1":-89.0895,"lo2":-89.0444,"dy":0.0017,"dx":0.0017,"nx":28,"ny":28,"refTime":"2023-09-24T03:00:00:Z","depth":0,"parameterNumber":2,"parameterNumberName":"U-component_of_WINDS"},"data":[0,0,0,0,0,0,0,0,0,0,0,0,0,0,0,0,0,0,0,0,0,0,0,0,0,0,0,0,0,0,0,0,0,0,0,0,0,0,0,0,0,0,0,0,0,0,0,0,0,0,0,0,0,0,0,0,0,0,0.2999,0.2999,0,0.2997,0.2997,0.2997,0.2995,0.2995,0.2995,0.2995,0.2994,0.2994,0.2994,0,0,0,0,0,0,0,0,0,0,0,0,0,0.3001,0.3001,0.2999,0.2999,0.2999,0.2997,0.2997,0.2997,0.2995,0.2995,0.2995,0.2995,0.2994,0.2994,0.2994,0,0,0,0,0,0,0,0,0,0,0,0,0,0.3,0.3001,0.2999,0.2998,0.2998,0.2997,0.2997,0.2997,0.2995,0.2995,0.2995,0.2995,0.2994,0.2994,0.2994,0.2994,0,0,0.2994,0.2994,0,0,0,0,0,0,0,0,0.3,0.3,0.2998,0.2998,0.2998,0.2996,0.2997,0.2996,0.2995,0.2996,0.2995,0.2995,0.2995,0.2995,0.2994,0.2994,0.2994,0.2994,0.2994,0.2994,0.2994,0,0,0,0,0,0,0,0.3,0.3,0.2998,0.2998,0.2998,0.2997,0.2997,0.2997,0.2996,0.2996,0.2996,0.2996,0.2995,0.2994,0.2994,0.2994,0.2994,0.2994,0.2994,0.2994,0.2994,0.2994,0,0,0,0,0,0,0.3,0.3,0.2998,0.2998,0.2999,0.2997,0.2997,0.2997,0.2996,0.2995,0.2996,0.2996,0.2994,0.2994,0.2994,0.2995,0.2994,0.2994,0.2994,0.2994,0.2994,0.2994,0,0,0,0,0,0,0.3,0.3,0.2998,0.2999,0.2999,0.2997,0.2997,0.2997,0.2996,0.2995,0.2995,0.2996,0.2994,0.2994,0.2994,0.2995,0.2994,0.2994,0.2994,0.2994,0.2994,0.2995,0,0,0,0,0,0,0.3,0.3,0.3,0.2999,0.2999,0.2998,0.2997,0.2997,0.2996,0.2996,0.2995,0.2995,0.2994,0.2994,0.2994,0.2995,0.2994,0.2994,0.2994,0.2994,0.2995,0.2996,0.2996,0,0,0,0,0,0.3,0.3,0.3,0.3,0.2998,0.2998,0.2998,0.2997,0.2996,0.2996,0.2996,0.2995,0.2995,0.2994,0.2994,0.2995,0.2994,0.2994,0.2994,0.2995,0.2995,0.2996,0,0,0,0,0,0,0.3002,0.3,0.3,0.2999,0.2999,0.2998,0.2998,0.2997,0.2997,0.2996,0.2996,0.2995,0.2995,0.2995,0.2995,0.2995,0.2994,0.2994,0.2995,0.2995,0.2995,0.2995,0.2994,0,0,0,0,0,0.3002,0.3001,0.3,0.3,0.3,0.2999,0.2998,0.2998,0.2997,0.2997,0.2996,0.2996,0.2996,0.2996,0.2995,0.2995,0.2995,0.2996,0.2996,0.2996,0.2996,0.2996,0.2996,0.2995,0.2995,0.2995,0,0,0.3002,0.3001,0.3001,0.3,0.3,0.2999,0.2999,0.2998,0.2998,0.2997,0.2997,0.2996,0.2996,0.2996,0.2996,0.2996,0.2996,0.2996,0.2996,0.2996,0.2996,0.2996,0.2997,0.2995,0.2995,0.2995,0,0,0.3003,0.3002,0.3002,0.3001,0.3001,0.3,0.3,0.2999,0.2999,0.2999,0.2998,0.2998,0.2997,0.2997,0.2997,0.2998,0.2997,0.2998,0.2999,0.2999,0.2999,0.2999,0.3,0.3,0.2998,0.2998,0.2998,0,0.3003,0.3003,0.3002,0.3002,0.3001,0.3,0.3,0.3,0.2999,0.2999,0.2999,0.2998,0.2998,0.2998,0.2998,0.2998,0.2998,0.2998,0.2999,0.2999,0.2999,0.3,0.3,0.2998,0.2998,0.2998,0.2998,0,0.3004,0.3003,0.3003,0.3002,0.3002,0.3002,0.3001,0.3001,0.3001,0.3,0.3,0.3,0.3,0.3,0.2999,0.3,0.3,0.2999,0.2998,0.2999,0.3,0.3,0.2998,0.2998,0.2998,0.2998,0,0,0.3005,0.3004,0.3004,0.3003,0.3003,0.3002,0.3002,0.3002,0.3002,0.3002,0.3002,0.3001,0.3001,0.3001,0.3001,0.3001,0.3002,0.3,0.3,0.3001,0.3002,0.3003,0.3003,0.3001,0.3001,0.3002,0.3003,0,0.3005,0.3005,0.3004,0.3004,0.3004,0.3003,0.3003,0.3003,0.3003,0.3002,0.3002,0.3002,0.3002,0.3002,0.3002,0.3002,0.3002,0.3001,0.3002,0.3002,0.3002,0.3003,0.3003,0.3004,0.3003,0.3003,0.3003,0,0.3005,0.3005,0.3005,0.3004,0.3004,0.3004,0.3004,0.3004,0.3004,0.3003,0.3003,0.3003,0.3003,0.3003,0.3003,0.3003,0.3003,0.3003,0.3003,0.3003,0.3002,0.3003,0.3004,0.3005,0.3003,0.3003,0.3003,0,0.3006,0.3005,0.3005,0.3005,0.3005,0.3005,0.3004,0.3004,0.3004,0.3004,0.3004,0.3004,0.3004,0.3004,0.3004,0.3004,0.3004,0.3004,0.3004,0.3004,0.3004,0.3004,0.3006,0.3005,0.3005,0.3005,0.3005,0,0.3006,0.3006,0.3006,0.3006,0.3006,0.3005,0.3005,0.3005,0.3005,0.3005,0.3005,0.3005,0.3004,0.3005,0.3004,0.3005,0.3005,0.3005,0.3005,0.3005,0.3005,0.3005,0.3005,0.3005,0.3005,0.3005,0.3005,0,0.3007,0.3006,0.3006,0.3006,0.3006,0.3006,0.3006,0.3006,0.3006,0.3006,0.3006,0.3005,0.3006,0.3005,0.3006,0.3006,0.3006,0.3006,0.3006,0.3006,0.3006,0.3006,0.3008,0.3008,0.3007,0.3007,0.3007,0,0.3007,0.3007,0.3007,0.3007,0.3006,0.3006,0.3006,0.3006,0.3006,0.3006,0.3006,0.3006,0.3006,0.3007,0.3007,0.3007,0.3007,0.3007,0.3007,0.3007,0.3007,0.3007,0.3007,0.3007,0.3007,0.3007,0.3007,0,0.3007,0.3007,0.3007,0.3007,0.3007,0.3007,0.3007,0.3007,0.3007,0.3007,0.3007,0.3007,0.3007,0.3008,0.3008,0.3008,0.3008,0.3008,0.3008,0.3008,0.3008,0.3008,0.3006,0.3008,0.3008,0.3008,0.3008,0.3008,0.3008,0.3008,0.3007,0.3007,0.3007,0.3007,0.3008,0.3008,0.3008,0.3008,0.3008,0.3008,0.3008,0.3008,0.3009,0.3009,0.3009,0.3009,0.3009,0.3009,0.3009,0.3008,0.3009,0.3009,0.3009,0.3009,0.3009,0,0.3008,0.3008,0.3008,0.3008,0.3008,0.3008,0.3008,0.3008,0.3008,0.3008,0.3008,0.3009,0.3009,0.3009,0.301,0.301,0.301,0.301,0.301,0.301,0.3009,0.3009,0.301,0.301,0.301,0.301,0.301,0.301,0.3008,0.3008,0.3008,0.3008,0.3008,0.3008,0.3009,0.3009,0.3009,0.3009,0.3009,0.301,0.301,0.301,0.3011,0.3011,0.3011,0.3011,0.3011,0.301,0.301,0.301,0.301,0.3011,0.3011,0.3012,0.3012,0.3012]},{"header":{"parameterUnit":"m.s-1","parameterCategory":1,"la1":30.2991,"la2":30.254,"lo1":-89.0895,"lo2":-89.0444,"dy":0.0017,"dx":0.0017,"nx":28,"ny":28,"refTime":"2023-09-24T03:00:00:Z","depth":0,"parameterNumber":3,"parameterNumberName":"V-component_of_WINDS"},"data":[0,0,0,0,0,0,0,0,0,0,0,0,0,0,0,0,0,0,0,0,0,0,0,0,0,0,0,0,0,0,0,0,0,0,0,0,0,0,0,0,0,0,0,0,0,0,0,0,0,0,0,0,0,0,0,0,0,0,-0.6792,-0.6792,0,-0.6774,-0.6774,-0.6774,-0.6765,-0.6765,-0.6765,-0.6764,-0.6747,-0.6746,-0.6746,0,0,0,0,0,0,0,0,0,0,0,0,0,-0.6821,-0.682,-0.6792,-0.6792,-0.6792,-0.6774,-0.6774,-0.6774,-0.6765,-0.6765,-0.6765,-0.6764,-0.6747,-0.6746,-0.6746,0,0,0,0,0,0,0,0,0,0,0,0,0,-0.6806,-0.682,-0.6792,-0.6785,-0.6784,-0.6774,-0.6774,-0.6774,-0.6765,-0.6765,-0.6765,-0.6764,-0.6747,-0.6746,-0.6746,-0.6742,0,0,-0.6744,-0.6743,0,0,0,0,0,0,0,0,-0.6807,-0.6805,-0.6786,-0.6785,-0.6784,-0.6772,-0.6778,-0.6763,-0.6765,-0.6772,-0.6764,-0.6764,-0.6755,-0.6754,-0.675,-0.6741,-0.674,-0.6744,-0.6743,-0.6743,-0.6743,0,0,0,0,0,0,0,-0.6808,-0.6806,-0.6785,-0.6786,-0.6785,-0.6783,-0.6781,-0.6775,-0.6764,-0.6771,-0.6771,-0.6769,-0.6755,-0.6751,-0.675,-0.674,-0.6744,-0.6743,-0.6743,-0.6742,-0.6731,-0.6731,0,0,0,0,0,0,-0.681,-0.6807,-0.6786,-0.6785,-0.6796,-0.6783,-0.6781,-0.6776,-0.6764,-0.6762,-0.6769,-0.6768,-0.6752,-0.6751,-0.6749,-0.6746,-0.6743,-0.6742,-0.6742,-0.673,-0.6731,-0.6731,0,0,0,0,0,0,-0.6811,-0.6808,-0.6786,-0.6795,-0.6793,-0.6783,-0.6777,-0.6775,-0.6772,-0.6762,-0.676,-0.6767,-0.6752,-0.675,-0.6745,-0.6746,-0.6742,-0.6741,-0.673,-0.673,-0.6731,-0.6739,0,0,0,0,0,0,-0.6811,-0.6808,-0.6806,-0.6795,-0.6792,-0.6781,-0.6777,-0.6775,-0.6771,-0.677,-0.676,-0.6758,-0.6752,-0.6746,-0.6744,-0.6745,-0.6741,-0.673,-0.673,-0.6731,-0.6739,-0.674,-0.674,0,0,0,0,0,-0.6812,-0.6808,-0.6806,-0.6803,-0.6789,-0.6781,-0.6779,-0.6772,-0.6771,-0.6769,-0.6763,-0.6758,-0.6746,-0.6745,-0.6743,-0.6744,-0.673,-0.673,-0.6731,-0.6738,-0.6739,-0.674,0,0,0,0,0,0,-0.6819,-0.6807,-0.6804,-0.6796,-0.679,-0.678,-0.6777,-0.6773,-0.6767,-0.6767,-0.6758,-0.6756,-0.6752,-0.6747,-0.6747,-0.6741,-0.6738,-0.6737,-0.6744,-0.6745,-0.6746,-0.6748,-0.674,0,0,0,0,0,-0.6819,-0.6813,-0.6804,-0.6798,-0.6795,-0.6787,-0.6783,-0.6779,-0.6772,-0.6769,-0.6762,-0.6756,-0.6751,-0.6748,-0.6742,-0.6738,-0.6737,-0.6738,-0.6739,-0.6739,-0.6739,-0.674,-0.674,-0.6731,-0.6731,-0.6731,0,0,-0.682,-0.6813,-0.681,-0.6799,-0.6794,-0.6789,-0.6784,-0.6779,-0.6776,-0.6768,-0.6763,-0.6758,-0.6751,-0.6747,-0.6745,-0.6743,-0.6742,-0.6739,-0.674,-0.674,-0.674,-0.6741,-0.6741,-0.6732,-0.6732,-0.6731,0,0,-0.682,-0.6813,-0.6809,-0.6804,-0.6796,-0.6791,-0.6791,-0.6782,-0.6778,-0.6773,-0.6768,-0.6765,-0.6755,-0.6751,-0.6748,-0.675,-0.6746,-0.6748,-0.6752,-0.6753,-0.6753,-0.6754,-0.6757,-0.6757,-0.6748,-0.6748,-0.6748,0,-0.6822,-0.6814,-0.6807,-0.6803,-0.68,-0.6793,-0.679,-0.6786,-0.6777,-0.6775,-0.6773,-0.6763,-0.6758,-0.6754,-0.6755,-0.6752,-0.6752,-0.6749,-0.6754,-0.6754,-0.6755,-0.6757,-0.6758,-0.6749,-0.6749,-0.6749,-0.6749,0,-0.6818,-0.6813,-0.6811,-0.6804,-0.68,-0.6796,-0.679,-0.6787,-0.6784,-0.678,-0.6776,-0.677,-0.6764,-0.6763,-0.6759,-0.6759,-0.6759,-0.6755,-0.6752,-0.6756,-0.6759,-0.6759,-0.6749,-0.6749,-0.6749,-0.6749,0,0,-0.6819,-0.681,-0.681,-0.6808,-0.68,-0.6797,-0.6794,-0.6789,-0.6788,-0.6782,-0.6781,-0.6775,-0.6773,-0.6769,-0.6765,-0.6765,-0.677,-0.6762,-0.6762,-0.6765,-0.6773,-0.6776,-0.6777,-0.6767,-0.6768,-0.6768,-0.6774,0,-0.6819,-0.6813,-0.6809,-0.6805,-0.6802,-0.6797,-0.6795,-0.6791,-0.6788,-0.6786,-0.6782,-0.6779,-0.6775,-0.6773,-0.6773,-0.6769,-0.6772,-0.6769,-0.6767,-0.6767,-0.677,-0.6778,-0.6781,-0.6787,-0.6775,-0.6775,-0.6775,0,-0.6817,-0.6813,-0.681,-0.6806,-0.6804,-0.6802,-0.6799,-0.6796,-0.6793,-0.6791,-0.6788,-0.6784,-0.6783,-0.678,-0.6779,-0.6777,-0.6777,-0.6775,-0.6775,-0.6775,-0.6772,-0.678,-0.6788,-0.679,-0.6776,-0.6776,-0.6776,0,-0.6821,-0.6815,-0.6813,-0.6811,-0.6805,-0.6804,-0.6802,-0.6798,-0.6797,-0.6794,-0.6794,-0.6791,-0.679,-0.6788,-0.6784,-0.6782,-0.6785,-0.678,-0.6784,-0.6784,-0.6785,-0.6785,-0.6795,-0.6783,-0.6783,-0.6783,-0.6783,0,-0.6821,-0.682,-0.6815,-0.6813,-0.6813,-0.6808,-0.6807,-0.6805,-0.6802,-0.6802,-0.6797,-0.6797,-0.6792,-0.6791,-0.6788,-0.6789,-0.6788,-0.6787,-0.6787,-0.6788,-0.6789,-0.6788,-0.6788,-0.6783,-0.6783,-0.6783,-0.6783,0,-0.6824,-0.6821,-0.6819,-0.6815,-0.6814,-0.6813,-0.681,-0.681,-0.6807,-0.6807,-0.6807,-0.6803,-0.6802,-0.6798,-0.6796,-0.6795,-0.6797,-0.6795,-0.6799,-0.6798,-0.6803,-0.6803,-0.6814,-0.6816,-0.6801,-0.6801,-0.6801,0,-0.6825,-0.6824,-0.6821,-0.6821,-0.6819,-0.6818,-0.6817,-0.6813,-0.6813,-0.681,-0.6811,-0.681,-0.6809,-0.6809,-0.6806,-0.6806,-0.6804,-0.6808,-0.6804,-0.6807,-0.6806,-0.6807,-0.6808,-0.6809,-0.6809,-0.6809,-0.681,0,-0.6828,-0.6827,-0.6826,-0.6825,-0.6824,-0.6823,-0.6822,-0.6822,-0.6818,-0.6818,-0.6818,-0.6817,-0.6817,-0.6817,-0.6816,-0.6815,-0.6812,-0.6811,-0.6812,-0.6814,-0.6817,-0.6817,-0.6802,-0.6811,-0.6811,-0.6811,-0.681,-0.681,-0.6831,-0.6831,-0.683,-0.6829,-0.6828,-0.6828,-0.6828,-0.6827,-0.6827,-0.6826,-0.6824,-0.6825,-0.6825,-0.6824,-0.6823,-0.6824,-0.6823,-0.6824,-0.6824,-0.6825,-0.6826,-0.6816,-0.6824,-0.6824,-0.6824,-0.6824,-0.6824,0,-0.6835,-0.6834,-0.6834,-0.6833,-0.6834,-0.6832,-0.6831,-0.6832,-0.6833,-0.6833,-0.6833,-0.6834,-0.6835,-0.6834,-0.6834,-0.6836,-0.6835,-0.6837,-0.6837,-0.6837,-0.6827,-0.6827,-0.6838,-0.6838,-0.6838,-0.6838,-0.6838,-0.6838,-0.6837,-0.6838,-0.6837,-0.6839,-0.6839,-0.684,-0.684,-0.684,-0.6841,-0.6842,-0.6844,-0.6843,-0.6843,-0.6844,-0.6846,-0.6845,-0.6847,-0.6849,-0.6848,-0.6839,-0.6837,-0.6836,-0.6836,-0.6849,-0.6849,-0.6858,-0.6858,-0.6858]}]]